Huntingburg, IN

8:58 AM EST on January 21, 2018 (GMT -0500)
Huntingburg

Weather History for KHNB - April, 2013

Change the Weather History Date:

Friday, April 5, 2013

  Actual Average Record
Temperature  
Mean Temperature 47 °F -  
Max Temperature 64 °F 61 °F 77 °F (2001)
Min Temperature 30 °F 41 °F 28 °F (2002)
Degree Days  
Heating Degree Days 18    
Moisture  
Dew Point 30 °F    
Average Humidity 52    
Maximum Humidity 80    
Minimum Humidity 34    
Precipitation  
Precipitation 0.00 in - - ()
Sea Level Pressure  
Sea Level Pressure 30.08 in    
Wind  
Wind Speed 3 mph (NNW)    
Max Wind Speed 13 mph    
Max Gust Speed 18 mph    
Visibility 10 miles    
Events      
Averages and records for this station are not official NWS values.
T = Trace of Precipitation, MM = Missing Value Source: NWS Daily Summary

Daily Weather History Graph

Daily Weather History Graph

Search for Another Location

Airport or City:

Trip Planner

Search our weather history database for the weather conditions in past years. The results will help you decide how hot, cold, wet, or windy it might be!

Date:

Astronomy

Apr. 05, 2013 Rise Set
Actual Time 7:26 AM EDT 8:14 PM EDT
Civil Twilight 6:59 AM EDT 8:41 PM EDT
Nautical Twilight 6:27 AM EDT 9:13 PM EDT
Astronomical Twilight 5:55 AM EDT 9:46 PM EDT
Moon 4:29 AM EDT (4/5) 3:42 PM EDT (4/5)
Length of Visible Light 13h 42m
Length of Day
12h 48m
Waning Crescent, 24% of the Moon is Illuminated
Apr 5
Waning Crescent
Apr 10
New
Apr 18
First Quarter
Apr 25
Full
May 2
Last Quarter

Hourly Weather History & Observations

Time (EDT) Temp. Windchill Dew Point Humidity Pressure Visibility Wind Dir Wind Speed Gust Speed Precip Events Conditions
12:15 AM 39.2 °F - 24.8 °F 56% 30.02 in 10.0 mi Calm Calm - N/A   Clear
12:35 AM 39.2 °F - 26.6 °F 61% 30.03 in 10.0 mi Calm Calm - N/A   Clear
12:55 AM 37.4 °F - 26.6 °F 65% 30.03 in 10.0 mi Calm Calm - N/A   Clear
1:15 AM 37.4 °F - 24.8 °F 60% 30.03 in 10.0 mi Calm Calm - N/A   Clear
1:35 AM 35.6 °F - 24.8 °F 65% 30.03 in 10.0 mi Calm Calm - N/A   Clear
1:55 AM 35.6 °F - 24.8 °F 65% 30.03 in 10.0 mi Calm Calm - N/A   Clear
2:16 AM 37.4 °F - 24.8 °F 60% 30.03 in 10.0 mi Calm Calm - N/A   Clear
2:35 AM 35.6 °F - 24.8 °F 65% 30.03 in 10.0 mi Calm Calm - N/A   Clear
2:55 AM 35.6 °F - 24.8 °F 65% 30.03 in 10.0 mi Calm Calm - N/A   Clear
3:15 AM 33.8 °F - 26.6 °F 75% 30.03 in 10.0 mi Calm Calm - N/A   Clear
3:35 AM 33.8 °F - 24.8 °F 70% 30.04 in 8.0 mi Calm Calm - N/A   Clear
3:55 AM 33.8 °F - 24.8 °F 70% 30.04 in 10.0 mi Calm Calm - N/A   Clear
4:15 AM 33.8 °F - 24.8 °F 70% 30.04 in 10.0 mi Calm Calm - N/A   Clear
4:35 AM 33.8 °F 30.8 °F 24.8 °F 70% 30.04 in 9.0 mi South 3.5 mph - N/A   Clear
5:15 AM 32.0 °F 28.7 °F 24.8 °F 75% 30.05 in 10.0 mi SSE 3.5 mph - N/A   Clear
5:35 AM 32.0 °F - 23.0 °F 69% 30.06 in 10.0 mi Calm Calm - N/A   Clear
5:55 AM 32.0 °F - 24.8 °F 75% 30.06 in 10.0 mi Calm Calm - N/A   Clear
6:15 AM 30.2 °F - 24.8 °F 80% 30.07 in 10.0 mi Calm Calm - N/A   Clear
6:35 AM 32.0 °F - 24.8 °F 75% 30.07 in 10.0 mi Calm Calm - N/A   Clear
6:55 AM 30.2 °F - 24.8 °F 80% 30.08 in 10.0 mi Calm Calm - N/A   Clear
7:15 AM 30.2 °F - 24.8 °F 80% 30.09 in 10.0 mi Calm Calm - N/A   Clear
7:35 AM 30.2 °F - 24.8 °F 80% 30.09 in 10.0 mi Calm Calm - N/A   Clear
7:55 AM 32.0 °F - 24.8 °F 75% 30.10 in 10.0 mi Calm Calm - N/A   Clear
8:15 AM 32.0 °F - 24.8 °F 75% 30.10 in 10.0 mi Calm Calm - N/A   Clear
8:35 AM 32.0 °F - 26.6 °F 80% 30.10 in 10.0 mi Calm Calm - N/A   Clear
8:55 AM 35.6 °F - 28.4 °F 75% 30.11 in 10.0 mi Calm Calm - N/A   Clear
9:15 AM 39.2 °F - 28.4 °F 65% 30.11 in 10.0 mi Calm Calm - N/A   Clear
9:35 AM 42.8 °F - 30.2 °F 61% 30.11 in 10.0 mi Calm Calm - N/A   Clear
10:15 AM 48.2 °F - 33.8 °F 58% 30.11 in 10.0 mi Calm Calm - N/A   Clear
10:35 AM 51.8 °F - 33.8 °F 50% 30.11 in 10.0 mi WNW 3.5 mph - N/A   Clear
10:55 AM 55.4 °F - 33.8 °F 44% 30.11 in 10.0 mi WNW 3.5 mph - N/A   Clear
11:15 AM 55.4 °F - 33.8 °F 44% 30.11 in 10.0 mi WNW 4.6 mph - N/A   Clear
11:35 AM 57.2 °F - 33.8 °F 41% 30.12 in 10.0 mi North 4.6 mph - N/A   Clear
11:55 AM 57.2 °F - 35.6 °F 44% 30.11 in 10.0 mi WNW 5.8 mph - N/A   Clear
12:35 PM 60.8 °F - 33.8 °F 36% 30.12 in 10.0 mi NW 10.4 mph - N/A   Clear
12:55 PM 60.8 °F - 35.6 °F 39% 30.11 in 10.0 mi NNW 9.2 mph - N/A   Clear
1:15 PM 60.8 °F - 35.6 °F 39% 30.11 in 10.0 mi NW 11.5 mph 16.1 mph N/A   Clear
1:35 PM 60.8 °F - 37.4 °F 42% 30.11 in 10.0 mi NW 12.7 mph 17.3 mph N/A   Clear
1:55 PM 62.6 °F - 37.4 °F 39% 30.10 in 10.0 mi NNW 11.5 mph 18.4 mph N/A   Clear
2:15 PM 62.6 °F - 37.4 °F 39% 30.09 in 10.0 mi NW 10.4 mph 16.1 mph N/A   Clear
2:35 PM 62.6 °F - 33.8 °F 34% 30.09 in 10.0 mi NNW 10.4 mph 17.3 mph N/A   Clear
2:55 PM 62.6 °F - 35.6 °F 37% 30.09 in 10.0 mi NW 10.4 mph 17.3 mph N/A   Clear
3:15 PM 62.6 °F - 33.8 °F 34% 30.09 in 10.0 mi NNW 11.5 mph 18.4 mph N/A   Clear
3:35 PM 62.6 °F - 33.8 °F 34% 30.09 in 10.0 mi NNW 10.4 mph 18.4 mph N/A   Clear
3:55 PM 62.6 °F - 33.8 °F 34% 30.08 in 10.0 mi North 10.4 mph - N/A   Clear
4:15 PM 64.4 °F - 35.6 °F 34% 30.07 in 10.0 mi North 10.4 mph - N/A   Clear
4:35 PM 62.6 °F - 33.8 °F 34% 30.06 in 10.0 mi NW 9.2 mph - N/A   Clear
4:55 PM 64.4 °F - 35.6 °F 34% 30.06 in 10.0 mi North 10.4 mph - N/A   Clear
5:15 PM 64.4 °F - 35.6 °F 34% 30.05 in 10.0 mi NNW 10.4 mph - N/A   Clear
5:35 PM 62.6 °F - 33.8 °F 34% 30.05 in 10.0 mi NNW 4.6 mph - N/A   Clear
5:55 PM 62.6 °F - 33.8 °F 34% 30.06 in 10.0 mi NW 9.2 mph - N/A   Clear
6:15 PM 62.6 °F - 35.6 °F 37% 30.07 in 10.0 mi WNW 9.2 mph - N/A   Clear
6:35 PM 62.6 °F - 33.8 °F 34% 30.07 in 10.0 mi NNW 8.1 mph - N/A   Clear
6:55 PM 62.6 °F - 33.8 °F 34% 30.07 in 10.0 mi NW 10.4 mph - N/A   Clear
7:15 PM 60.8 °F - 33.8 °F 36% 30.08 in 10.0 mi NW 9.2 mph - N/A   Clear
7:55 PM 57.2 °F - 32.0 °F 38% 30.09 in 10.0 mi NNW 8.1 mph - N/A   Clear
8:15 PM 57.2 °F - 30.2 °F 36% 30.09 in 10.0 mi NNW 5.8 mph - N/A   Clear
8:36 PM 55.4 °F - 30.2 °F 38% 30.09 in 10.0 mi NNW 5.8 mph - N/A   Clear
8:55 PM 55.4 °F - 30.2 °F 38% 30.10 in 10.0 mi North 4.6 mph - N/A   Clear
9:15 PM 55.4 °F - 30.2 °F 38% 30.11 in 10.0 mi NNW 4.6 mph - N/A   Clear
9:35 PM 55.4 °F - 28.4 °F 36% 30.11 in 10.0 mi North 5.8 mph - N/A   Clear
9:55 PM 53.6 °F - 28.4 °F 38% 30.12 in 10.0 mi North 4.6 mph - N/A   Clear
10:15 PM 53.6 °F - 28.4 °F 38% 30.12 in 10.0 mi NNE 4.6 mph - N/A   Clear
10:35 PM 50.0 °F - 28.4 °F 43% 30.13 in 10.0 mi North 4.6 mph - N/A   Clear
10:55 PM 50.0 °F - 30.2 °F 47% 30.13 in 10.0 mi NNE 3.5 mph - N/A   Clear
11:15 PM 48.2 °F - 30.2 °F 50% 30.13 in 10.0 mi NE 3.5 mph - N/A   Clear
11:35 PM 48.2 °F - 28.4 °F 46% 30.13 in 10.0 mi NNE 4.6 mph - N/A   Clear
11:55 PM 46.4 °F 45.2 °F 30.2 °F 53% 30.13 in 10.0 mi NE 3.5 mph - N/A   Clear